COSMOS 1058

Satellite information

Favourite Embed

Satellite Type and Status

PAYLOADIN ORBIT

Key statistics

Satellite COSMOS 1058 at a glance.

Uptime

17079

Days in orbit

Revolutions

≈ 12.4

Per day

Orbit

LEO

Low Earth Orbit

Inclination

74.0

Latest

Satellite identification and parameters

Extended collection of information and parameters for COSMOS 1058.

Object identification

Identified? True

Debris? False

Object name: COSMOS 1058

International designator: 1978-109H

Object number (NORAD): 11135

Object ID (CCSDS): 11135

Country: COMMONWEALTH OF INDEPENDENT STATES (CIS)

Current information (Y/N): Y

RCS size: MEDIUM

Orbital parameters

Period: 116.176 minutes

Inclination: 74.0163 deg

SMA: 7886.867 km

Apoapsis: 1537.885 km

Periapsis: 1479.579 km

RAAN: 49.323 deg

Eccentricy: 0.00369634

Argument of periapsis: 298.2799 deg

Mean anomaly: 176.944 deg

Mean motion: 12.39498453 rev/day

Mean motion (dot): -0.0000002 rev/day2

B* drag term: -0.000035662273 1/REarth

Two-line elements (TLE)

Creation date: Sept. 8, 2025, 3:16 a.m.

Reference frame: TEME

Reference center: EARTH

Epoch: Sept. 7, 2025, 9:17 p.m. UTC

TLE line 0: 0 COSMOS 1058

TLE line 1: 1 11135U 78109H 25250.88680944 -.00000020 00000-0 -35662-4 0 9997

TLE line 2: 2 11135 74.0163 49.3230 0036963 298.2799 176.9440 12.39498453115688

Live tracking on map

Real-time ground track for satellite COSMOS 1058.

In-orbit conjunctions

There are no conjunctions computed for COSMOS 1058, at the moment. Check back to stay up to date, as we update our databases every day.

Go to all conjunctions

Associated space launch

Military communications satellites

COSMOS 1058 was lifted into orbit during the mission ‘Kosmos-3M | Strela-1M 161-168’, on board a Kosmos-3M space rocket.

The launch took place on Dec. 5, 1978, 6:12 p.m. from 132/2.

For more information about the launch, click the button.

Launch to space Kosmos-3M | Strela-1M 161-168
Kosmos-3M | Strela-1M 161-168

Agency: N/A

Status: Launch Successful

Launch date: Dec. 5, 1978, 6:12 p.m. UTC

Rocket: Kosmos-3M

Launch pad: 132/2

Location: Plesetsk Cosmodrome, Russian Federation

...

Latest news about this satellite

There are no fresh news available about this satellite. Check back as we update our databases every day.


Newsletter sign-up

Weekly statistics, charts and insights to help you stay on top of the space industry.